Newberry, SC

11:27 PM EDT on April 19, 2018 (GMT -0400)
Newberry

Weather History for KEOE - January, 2014

Change the Weather History Date:

Wednesday, January 29, 2014

  Actual Average (KFDW) Record (KFDW)
Temperature  
Mean Temperature 26 °F -  
Max Temperature 32 °F 54 °F 66 °F (2011)
Min Temperature 21 °F 30 °F 21 °F (2014)
Degree Days  
Heating Degree Days 38    
Moisture  
Dew Point 20 °F    
Average Humidity 74    
Maximum Humidity 93    
Minimum Humidity 55    
Precipitation  
Precipitation 0.02 in - - ()
Sea Level Pressure  
Sea Level Pressure 30.30 in    
Wind  
Wind Speed 5 mph (NNE)    
Max Wind Speed 10 mph    
Max Gust Speed -    
Visibility 10 miles    
Events Snow    
Averages and records for this station are not official NWS values.
T = Trace of Precipitation, MM = Missing Value Source: NWS Daily Summary

Daily Weather History Graph

Daily Weather History Graph

Search for Another Location

Airport or City:

Astronomy

Jan. 29, 2014 Rise Set
Actual Time 7:26 AM EST 5:53 PM EST
Civil Twilight 6:59 AM EST 6:20 PM EST
Nautical Twilight 6:29 AM EST 6:50 PM EST
Astronomical Twilight 5:59 AM EST 7:19 PM EST
Moon 6:01 AM EST (1/29) 4:51 PM EST (1/29)
Length of Visible Light 11h 20m
Length of Day
10h 27m
Waning Crescent, 2% of the Moon is Illuminated
Jan 29
Waning Crescent
Jan 30
New
Feb 6
First Quarter
Feb 14
Full
Feb 22
Last Quarter

Hourly Weather History & Observations

Time (EST) Temp. Windchill Dew Point Humidity Pressure Visibility Wind Dir Wind Speed Gust Speed Precip Events Conditions
12:15 AM 26.6 °F 21.2 °F 23.0 °F 86% 30.20 in 10.0 mi NE 4.6 mph - N/A   Overcast
12:35 AM 26.6 °F 20.0 °F 23.0 °F 86% 30.19 in 10.0 mi NNE 5.8 mph - N/A   Mostly Cloudy
12:55 AM 26.6 °F 20.0 °F 24.8 °F 93% 30.17 in 10.0 mi North 5.8 mph - N/A Snow Light Snow
1:15 AM 26.6 °F 20.0 °F 24.8 °F 93% 30.19 in 10.0 mi North 5.8 mph - N/A   Overcast
1:35 AM 26.6 °F 20.0 °F 23.0 °F 86% 30.20 in 10.0 mi North 5.8 mph - N/A   Overcast
1:55 AM 26.6 °F 22.6 °F 23.0 °F 86% 30.19 in 10.0 mi North 3.5 mph - N/A   Overcast
2:15 AM 26.6 °F 18.2 °F 23.0 °F 86% 30.19 in 10.0 mi North 8.1 mph - N/A   Overcast
2:35 AM 26.6 °F 21.2 °F 23.0 °F 86% 30.20 in 10.0 mi North 4.6 mph - N/A   Overcast
2:55 AM 26.6 °F 18.2 °F 21.2 °F 80% 30.21 in 10.0 mi North 8.1 mph - N/A   Mostly Cloudy
3:15 AM 26.6 °F 20.0 °F 23.0 °F 86% 30.21 in 10.0 mi NNW 5.8 mph - N/A   Mostly Cloudy
3:35 AM 26.6 °F 19.1 °F 21.2 °F 80% 30.21 in 10.0 mi North 6.9 mph - N/A   Mostly Cloudy
3:55 AM 24.8 °F 16.1 °F 21.2 °F 86% 30.21 in 10.0 mi North 8.1 mph - N/A   Scattered Clouds
4:15 AM 24.8 °F 19.1 °F 21.2 °F 86% 30.21 in 10.0 mi North 4.6 mph - N/A   Clear
4:35 AM 24.8 °F 19.1 °F 21.2 °F 86% 30.21 in 10.0 mi North 4.6 mph - N/A   Clear
4:55 AM 24.8 °F 16.9 °F 21.2 °F 86% 30.21 in 10.0 mi NNE 6.9 mph - N/A   Scattered Clouds
5:15 AM 24.8 °F 19.1 °F 21.2 °F 86% 30.22 in 10.0 mi North 4.6 mph - N/A   Scattered Clouds
5:35 AM 24.8 °F 17.9 °F 21.2 °F 86% 30.22 in 10.0 mi North 5.8 mph - N/A   Mostly Cloudy
5:55 AM 24.8 °F 17.9 °F 21.2 °F 86% 30.23 in 10.0 mi North 5.8 mph - N/A   Overcast
6:15 AM 24.8 °F 17.9 °F 21.2 °F 86% 30.23 in 10.0 mi North 5.8 mph - N/A   Overcast
6:35 AM 24.8 °F 17.9 °F 21.2 °F 86% 30.23 in 10.0 mi NNE 5.8 mph - N/A   Overcast
6:55 AM 24.8 °F 19.1 °F 21.2 °F 86% 30.25 in 10.0 mi North 4.6 mph - N/A   Overcast
7:15 AM 24.8 °F 17.9 °F 19.4 °F 80% 30.25 in 10.0 mi NNE 5.8 mph - N/A   Mostly Cloudy
7:35 AM 23.0 °F 15.8 °F 19.4 °F 86% 30.27 in 10.0 mi NNE 5.8 mph - N/A   Scattered Clouds
7:55 AM 23.0 °F 15.8 °F 19.4 °F 86% 30.28 in 10.0 mi North 5.8 mph - N/A   Clear
8:15 AM 23.0 °F - 19.4 °F 86% 30.30 in 10.0 mi Calm Calm - N/A   Clear
8:35 AM 24.8 °F 19.1 °F 19.4 °F 80% 30.31 in 10.0 mi NNE 4.6 mph - N/A   Clear
8:55 AM 24.8 °F 17.9 °F 19.4 °F 80% 30.31 in 10.0 mi NNE 5.8 mph - N/A   Clear
9:15 AM 26.6 °F 18.2 °F 21.2 °F 80% 30.32 in 10.0 mi NNE 8.1 mph - N/A   Clear
9:35 AM 26.6 °F 17.5 °F 19.4 °F 74% 30.33 in 10.0 mi NNE 9.2 mph - N/A   Clear
9:55 AM 26.6 °F 17.5 °F 19.4 °F 74% 30.35 in 10.0 mi NNE 9.2 mph - N/A   Clear
10:15 AM 28.4 °F 19.1 °F 19.4 °F 69% 30.35 in 10.0 mi NNE 10.4 mph - N/A   Clear
10:35 AM 28.4 °F 19.7 °F 19.4 °F 69% 30.36 in 10.0 mi NE 9.2 mph - N/A   Clear
10:55 AM 28.4 °F 20.4 °F 19.4 °F 69% 30.36 in 10.0 mi NNE 8.1 mph - N/A   Clear
11:15 AM 28.4 °F 19.7 °F 17.6 °F 64% 30.36 in 10.0 mi NE 9.2 mph - N/A   Clear
11:35 AM 30.2 °F 23.4 °F 19.4 °F 64% 30.36 in 10.0 mi North 6.9 mph - N/A   Clear
11:55 AM 30.2 °F 23.4 °F 19.4 °F 64% 30.35 in 10.0 mi North 6.9 mph - 0.02 in   Clear
12:15 PM 30.2 °F 23.4 °F 19.4 °F 64% 30.34 in 10.0 mi North 6.9 mph - N/A   Clear
12:35 PM 30.2 °F 22.6 °F 19.4 °F 64% 30.34 in 10.0 mi North 8.1 mph - N/A   Scattered Clouds
12:55 PM 32.0 °F 25.6 °F 19.4 °F 60% 30.33 in 10.0 mi NE 6.9 mph - N/A   Clear
1:15 PM 32.0 °F 27.5 °F 19.4 °F 60% 30.32 in 10.0 mi NNE 4.6 mph - N/A   Clear
1:35 PM 32.0 °F 27.5 °F 19.4 °F 60% 30.31 in 10.0 mi NNE 4.6 mph - N/A   Clear
1:55 PM 32.0 °F 25.6 °F 19.4 °F 60% 30.31 in 10.0 mi North 6.9 mph - N/A   Clear
2:15 PM 32.0 °F - 17.6 °F 55% 30.31 in 10.0 mi Calm Calm - N/A   Clear
2:35 PM 32.0 °F 25.6 °F 17.6 °F 55% 30.32 in 10.0 mi North 6.9 mph - N/A   Clear
2:55 PM 32.0 °F 27.5 °F 17.6 °F 55% 30.32 in 10.0 mi North 4.6 mph - N/A   Clear
3:15 PM 32.0 °F 28.7 °F 17.6 °F 55% 30.32 in 10.0 mi NNW 3.5 mph - N/A   Clear
3:35 PM 32.0 °F - 17.6 °F 55% 30.32 in 10.0 mi Calm Calm - N/A   Clear
3:55 PM 32.0 °F 28.7 °F 17.6 °F 55% 30.32 in 10.0 mi North 3.5 mph - N/A   Clear
4:15 PM 32.0 °F 27.5 °F 17.6 °F 55% 30.32 in 10.0 mi North 4.6 mph - N/A   Clear
4:35 PM 32.0 °F 27.5 °F 17.6 °F 55% 30.33 in 10.0 mi NNE 4.6 mph - N/A   Clear
4:55 PM 32.0 °F 28.7 °F 17.6 °F 55% 30.33 in 10.0 mi NNE 3.5 mph - N/A   Clear
5:15 PM 32.0 °F 28.7 °F 17.6 °F 55% 30.34 in 10.0 mi NNE 3.5 mph - N/A   Clear
5:35 PM 32.0 °F - 17.6 °F 55% 30.33 in 10.0 mi Calm Calm - N/A   Clear
5:55 PM 32.0 °F - 17.6 °F 55% 30.33 in 10.0 mi Calm Calm - N/A   Clear
6:15 PM 32.0 °F - 19.4 °F 60% 30.34 in 10.0 mi Calm Calm - N/A   Clear
6:35 PM 32.0 °F - 19.4 °F 60% 30.34 in 10.0 mi Calm Calm - N/A   Clear
6:55 PM 30.2 °F - 19.4 °F 64% 30.35 in 10.0 mi Calm Calm - N/A   Clear
7:15 PM 30.2 °F - 21.2 °F 69% 30.35 in 10.0 mi Calm Calm - N/A   Clear
7:35 PM 30.2 °F - 23.0 °F 75% 30.35 in 10.0 mi Calm Calm - N/A   Clear
7:55 PM 30.2 °F - 21.2 °F 69% 30.35 in 10.0 mi Calm Calm - N/A   Clear
8:15 PM 28.4 °F 24.6 °F 21.2 °F 74% 30.34 in 10.0 mi NNE 3.5 mph - N/A   Clear
8:35 PM 28.4 °F - 21.2 °F 74% 30.35 in 10.0 mi Calm Calm - N/A   Clear
8:55 PM 26.6 °F - 21.2 °F 80% 30.34 in 10.0 mi Calm Calm - N/A   Clear
9:15 PM 26.6 °F - 21.2 °F 80% 30.35 in 10.0 mi Calm Calm - N/A   Clear
9:35 PM 24.8 °F 20.5 °F 19.4 °F 80% 30.36 in 10.0 mi East 3.5 mph - N/A   Clear
9:55 PM 23.0 °F 18.4 °F 19.4 °F 86% 30.36 in 10.0 mi ESE 3.5 mph - N/A   Clear
10:15 PM 24.8 °F - 19.4 °F 80% 30.36 in 10.0 mi Calm Calm - N/A   Clear
10:35 PM 23.0 °F - 19.4 °F 86% 30.36 in 10.0 mi Calm Calm - N/A   Clear
10:55 PM 23.0 °F - 19.4 °F 86% 30.37 in 10.0 mi Calm Calm - N/A   Clear
11:15 PM 23.0 °F - 19.4 °F 86% 30.37 in 10.0 mi Calm Calm - N/A   Clear
11:35 PM 21.2 °F - 19.4 °F 93% 30.37 in 10.0 mi Calm Calm - N/A   Clear
11:55 PM 23.0 °F - 19.4 °F 86% 30.38 in 10.0 mi Calm Calm - N/A   Clear